Time,TemperatureF,DewpointF,PressureIn,WindDirection,WindDirectionDegrees,WindSpeedMPH,WindSpeedGustMPH,Humidity,HourlyPrecipIn,Conditions,Clouds,dailyrainin,SoftwareType,DateUTC
2013-11-21 00:03:00,40.0,39.0,-100.00,ESE,110,4.0,7.0,93,0.00,,,-99.99,,2013-11-21 06:03:00,
2013-11-21 00:12:00,40.0,39.0,-100.00,ESE,110,4.0,7.0,93,0.00,,,-99.99,,2013-11-21 06:12:00,
2013-11-21 01:42:00,39.0,38.0,-100.00,East,95,2.0,4.0,94,0.00,,,-99.99,,2013-11-21 07:42:00,
2013-11-21 03:22:00,37.0,36.0,-100.00,ESE,110,2.0,2.0,95,0.00,,,-99.99,,2013-11-21 09:22:00,
2013-11-21 03:43:00,37.0,36.0,-100.00,SE,130,1.0,2.0,95,0.00,,,-99.99,,2013-11-21 09:43:00,
2013-11-21 03:53:00,37.0,36.0,-100.00,SE,130,1.0,2.0,95,0.00,,,-99.99,,2013-11-21 09:53:00,
2013-11-21 04:03:00,37.0,36.0,-100.00,SE,130,1.0,2.0,95,0.00,,,-99.99,,2013-11-21 10:03:00,
2013-11-21 04:13:00,37.0,36.0,-100.00,SE,130,1.0,2.0,95,0.00,,,-99.99,,2013-11-21 10:13:00,
2013-11-21 05:43:00,35.0,35.0,-100.00,South,185,1.0,2.0,96,0.00,,,-99.99,,2013-11-21 11:43:00,
2013-11-21 06:12:00,36.0,36.0,-100.00,WSW,245,0.0,2.0,96,0.00,,,-99.99,,2013-11-21 12:12:00,
2013-11-21 06:22:00,36.0,36.0,-100.00,WSW,245,0.0,2.0,96,0.00,,,-99.99,,2013-11-21 12:22:00,
2013-11-21 06:32:00,36.0,36.0,-100.00,WSW,245,0.0,2.0,96,0.00,,,-99.99,,2013-11-21 12:32:00,
2013-11-21 06:42:00,36.0,36.0,-100.00,WSW,245,0.0,2.0,96,0.00,,,-99.99,,2013-11-21 12:42:00,
2013-11-21 09:12:00,39.0,38.0,-100.00,NW,320,3.0,6.0,96,0.00,,,-99.99,,2013-11-21 15:12:00,
2013-11-21 09:22:00,39.0,38.0,-100.00,North,350,4.0,6.0,96,0.00,,,-99.99,,2013-11-21 15:22:00,
2013-11-21 09:33:00,39.0,38.0,-100.00,North,350,4.0,6.0,96,0.00,,,-99.99,,2013-11-21 15:33:00,
2013-11-21 09:44:00,39.0,38.0,-100.00,North,350,4.0,6.0,96,0.00,,,-99.99,,2013-11-21 15:44:00,
2013-11-21 09:53:00,39.0,38.0,-100.00,North,350,4.0,6.0,96,0.00,,,-99.99,,2013-11-21 15:53:00,
2013-11-21 10:24:00,39.0,38.0,-100.00,NNE,20,9.0,14.0,96,0.00,,,-99.99,,2013-11-21 16:24:00,
2013-11-21 10:33:00,39.0,38.0,-100.00,NNE,20,9.0,14.0,96,0.00,,,-99.99,,2013-11-21 16:33:00,
2013-11-21 10:42:00,39.0,38.0,-100.00,NNE,20,9.0,14.0,96,0.00,,,-99.99,,2013-11-21 16:42:00,
2013-11-21 13:42:00,42.0,38.0,-100.00,North,5,6.0,9.0,86,0.00,,,-99.99,,2013-11-21 19:42:00,
2013-11-21 14:22:00,44.0,39.0,-100.00,NNE,15,4.0,11.0,81,0.00,,,-99.99,,2013-11-21 20:22:00,
2013-11-21 14:32:00,44.0,39.0,-100.00,NNE,15,4.0,11.0,81,0.00,,,-99.99,,2013-11-21 20:32:00,
2013-11-21 14:42:00,44.0,39.0,-100.00,NNE,15,4.0,11.0,81,0.00,,,-99.99,,2013-11-21 20:42:00,
2013-11-21 15:11:00,44.0,38.0,-100.00,NNW,345,9.0,14.0,79,0.00,,,-99.99,,2013-11-21 21:11:00,
2013-11-21 15:22:00,44.0,38.0,-100.00,NNW,345,9.0,14.0,79,0.00,,,-99.99,,2013-11-21 21:22:00,
2013-11-21 15:34:00,44.0,38.0,-100.00,NNW,345,9.0,14.0,79,0.00,,,-99.99,,2013-11-21 21:34:00,
2013-11-21 16:11:00,39.0,37.0,-100.00,NW,310,13.0,19.0,91,0.01,,,-99.99,,2013-11-21 22:11:00,
2013-11-21 16:13:00,44.0,38.0,-100.00,NNW,345,9.0,11.0,80,0.00,,,-99.99,,2013-11-21 22:13:00,
2013-11-21 16:23:00,44.0,38.0,-100.00,NNW,345,9.0,11.0,80,0.00,,,-99.99,,2013-11-21 22:23:00,
2013-11-21 16:43:00,39.0,37.0,-100.00,NW,310,13.0,19.0,91,0.01,,,-99.99,,2013-11-21 22:43:00,
2013-11-21 16:53:00,39.0,37.0,-100.00,NW,310,13.0,19.0,91,0.01,,,-99.99,,2013-11-21 22:53:00,
2013-11-21 17:03:00,39.0,37.0,-100.00,NW,310,13.0,19.0,91,0.01,,,-99.99,,2013-11-21 23:03:00,
2013-11-21 18:11:00,36.0,34.0,-100.00,NW,320,13.0,19.0,94,0.03,,,-99.99,,2013-11-22 00:11:00,
2013-11-21 18:22:00,36.0,34.0,-100.00,NW,320,13.0,19.0,94,0.03,,,-99.99,,2013-11-22 00:22:00,
2013-11-21 18:32:00,36.0,34.0,-100.00,NW,320,13.0,19.0,94,0.03,,,-99.99,,2013-11-22 00:32:00,
2013-11-21 19:12:00,34.0,33.0,-100.00,NNW,330,9.0,16.0,94,0.00,,,-99.99,,2013-11-22 01:12:00,
2013-11-21 19:22:00,34.0,33.0,-100.00,NNW,330,9.0,16.0,94,0.00,,,-99.99,,2013-11-22 01:22:00,
2013-11-21 19:32:00,34.0,33.0,-100.00,NNW,330,9.0,16.0,94,0.00,,,-99.99,,2013-11-22 01:32:00,
2013-11-21 19:42:00,34.0,33.0,-100.00,NNW,330,9.0,16.0,94,0.00,,,-99.99,,2013-11-22 01:42:00,
2013-11-21 20:42:00,33.0,32.0,-100.00,NNW,330,12.0,17.0,94,0.07,,,-99.99,,2013-11-22 02:42:00,
2013-11-21 20:53:00,33.0,32.0,-100.00,NNW,330,12.0,17.0,94,0.07,,,-99.99,,2013-11-22 02:53:00,
2013-11-21 21:02:00,33.0,32.0,-100.00,NNW,330,12.0,17.0,94,0.07,,,-99.99,,2013-11-22 03:02:00,
2013-11-21 21:43:00,33.0,32.0,-100.00,NW,305,11.0,15.0,95,0.03,,,-99.99,,2013-11-22 03:43:00,
2013-11-21 21:54:00,33.0,32.0,-100.00,NW,305,11.0,15.0,95,0.03,,,-99.99,,2013-11-22 03:54:00,
2013-11-21 22:23:00,33.0,32.0,-100.00,NW,305,12.0,17.0,95,0.04,,,-99.99,,2013-11-22 04:23:00,
2013-11-21 22:43:00,33.0,32.0,-100.00,NW,320,11.0,17.0,95,0.04,,,-99.99,,2013-11-22 04:43:00,
2013-11-21 22:52:00,33.0,32.0,-100.00,NW,320,11.0,17.0,95,0.04,,,-99.99,,2013-11-22 04:52:00,
2013-11-21 23:02:00,33.0,32.0,-100.00,NW,320,11.0,17.0,95,0.04,,,-99.99,,2013-11-22 05:02:00,
2013-11-21 23:53:00,32.0,31.0,-100.00,NW,310,11.0,16.0,95,0.03,,,-99.99,,2013-11-22 05:53:00,